Skip Page Navigation
NASA JPL Caltech
NASA Logo - Jet Propulsion Laboratory + View the NASA Portal
+ Center for Near-Earth Object Studies
JPL Home Earth Solar System Stars & Galaxies Technology
JPL Solar System Dynamics
BODIES ORBITS EPHEMERIDES TOOLS PHYSICAL DATA DISCOVERY FAQ SITE MAP
JPL Small-Body Database Browser
Search: [ help ]  
437325 (2013 QV53)
Classification: Inner Main-belt Asteroid          SPK-ID: 2437325
Ephemeris | Orbit Diagram | Orbital Elements | Mission Design | Physical Parameters | Discovery Circumstances ]

[ show orbit diagram ]
Orbital Elements at Epoch 2459000.5 (2020-May-31.0) TDB
Reference: JPL 10 (heliocentric ecliptic J2000)
 Element Value Uncertainty (1-sigma)   Units 
e .09984747197480234 5.816e-08  
a 1.990927177688565 2.0207e-08 au
q 1.792138132110434 1.1767e-07 au
i 17.39042036583983 1.1181e-05 deg
node 332.0544772978663 2.3417e-05 deg
peri 110.8065619730974 7.3232e-05 deg
M 47.7754300135491 6.3456e-05 deg
tp 2458864.329324003250
(2020-Jan-15.82932400)
0.00018178 TDB
period 1026.080630669937
2.81
1.5621e-05
4.277e-08
d
yr
n .3508496206238225 5.3415e-09 deg/d
Q 2.189716223266696 2.2225e-08 au
  Orbit Determination Parameters
   # obs. used (total)      68  
   data-arc span      7404 days (20.27 yr)  
   first obs. used      1999-10-16  
   last obs. used      2020-01-23  
   planetary ephem.      DE431  
   SB-pert. ephem.      SB431-N16  
   condition code      0  
   norm. resid. RMS      .68655  
   source      ORB  
   producer      Otto Matic  
   solution date      2020-Feb-26 10:09:42  

Additional Information
 Earth MOID = .868017 au 
 Jupiter MOID = 2.95946 au 
 T_jup = 3.788 
[ show covariance matrix ]

Ephemeris | Orbit Diagram | Orbital Elements | Mission Design | Physical Parameters | Discovery Circumstances ]

Physical Parameter Table
Parameter Symbol Value Units Sigma Reference Notes
absolute magnitude H 18.2   n/a MPO495169  

437325 (2013 QV53)          Discovered 2012-Jan-18 by Mt. Lemmon Survey at Mount Lemmon
Reference: Last Updated: 2015-06-04
Ephemeris | Orbit Diagram | Orbital Elements | Mission Design | Physical Parameters | Discovery Circumstances ]
ABOUT SSD CREDITS/AWARDS PRIVACY/COPYRIGHT GLOSSARY LINKS
FirstGov 2020-Aug-12 16:48 UT
(server date/time)  
NASA Home Page
Site Manager:   Ryan S. Park
Webmaster  Alan B. Chamberlin